Minot, ND

3:51 AM CDT on March 25, 2017 (GMT -0500)
Minot International

Weather History for KMOT - March, 2014

Change the Weather History Date:

Friday, March 21, 2014

  Actual Average Record
Temperature  
Mean Temperature 21 °F 30 °F  
Max Temperature 33 °F 40 °F 75 °F (1910)
Min Temperature 9 °F 21 °F -10 °F (1914)
Degree Days  
Heating Degree Days 44 34  
Month to date heating degree days 863 820  
Since 1 July heating degree days 8096 7396  
Cooling Degree Days 0 0  
Month to date cooling degree days 0 0  
Year to date cooling degree days 0 0  
Moisture  
Dew Point 16 °F    
Average Humidity 72    
Maximum Humidity 92    
Minimum Humidity 51    
Precipitation  
Precipitation T in 0.03 in 0.85 in (1953)
Month to date precipitation 0.05 0.51  
Year to date precipitation 0.41 1.42  
Sea Level Pressure  
Sea Level Pressure 30.13 in    
Wind  
Wind Speed 19 mph (NNW)    
Max Wind Speed 29 mph    
Max Gust Speed 37 mph    
Visibility 10 miles    
Events Snow    
T = Trace of Precipitation, MM = Missing Value Source: NWS Daily Summary

Daily Weather History Graph

Daily Weather History Graph

Search for Another Location

Airport or City:

Trip Planner

Search our weather history database for the weather conditions in past years. The results will help you decide how hot, cold, wet, or windy it might be!

Date:

Astronomy

Mar. 21, 2014 Rise Set
Actual Time 7:45 AM CDT 7:59 PM CDT
Civil Twilight 7:14 AM CDT 8:30 PM CDT
Nautical Twilight 6:38 AM CDT 9:07 PM CDT
Astronomical Twilight 6:00 AM CDT 9:45 PM CDT
Moon 12:40 AM CDT (3/21) 10:18 AM CDT (3/21)
Length of Visible Light 13h 16m
Length of Day
12h 13m
Waning Gibbous, 75% of the Moon is Illuminated
Mar 21
Waning Gibbous
Mar 23
Last Quarter
Mar 30
New
Apr 7
First Quarter
Apr 15
Full

Hourly Weather History & Observations

Time (CDT) Temp. Windchill Dew Point Humidity Pressure Visibility Wind Dir Wind Speed Gust Speed Precip Events Conditions
12:13 AM 33.1 °F 23.4 °F 30.0 °F 89% 29.72 in 9.0 mi NNW 13.8 mph - 0.00 in   Overcast
12:24 AM 33.1 °F 23.0 °F 30.0 °F 89% 29.73 in 7.0 mi North 15.0 mph - 0.00 in Snow Light Snow
12:47 AM 33.1 °F 21.5 °F 30.0 °F 89% 29.74 in 5.0 mi North 19.6 mph - 0.00 in   Overcast
1:34 AM 32.0 °F 19.8 °F 30.0 °F 92% 29.78 in 8.0 mi North 20.7 mph - N/A   Overcast
1:54 AM 32.0 °F 20.8 °F 30.0 °F 92% 29.83 in 10.0 mi North 17.3 mph - N/A   Overcast
2:11 AM 32.0 °F 20.5 °F 28.9 °F 88% 29.81 in 10.0 mi North 18.4 mph 23.0 mph N/A   Overcast
3:44 AM 30.9 °F 19.1 °F 28.0 °F 89% 29.87 in 10.0 mi NNW 18.4 mph - N/A   Overcast
3:54 AM 30.9 °F 19.8 °F 27.0 °F 85% 29.93 in 10.0 mi NNW 16.1 mph - N/A   Overcast
4:17 AM 30.0 °F 17.5 °F 27.0 °F 88% 29.89 in 10.0 mi NNW 19.6 mph - N/A   Overcast
4:30 AM 30.0 °F 17.5 °F 27.0 °F 88% 29.91 in 10.0 mi NNW 19.6 mph 26.5 mph N/A   Overcast
4:54 AM 30.0 °F 17.5 °F 26.1 °F 85% 29.97 in 10.0 mi NNW 19.6 mph 26.5 mph N/A   Overcast
5:18 AM 28.9 °F 14.8 °F 24.1 °F 82% 29.94 in 10.0 mi NW 24.2 mph 31.1 mph N/A   Overcast
5:54 AM 27.0 °F 13.2 °F 23.0 °F 85% 30.02 in 10.0 mi NNW 20.7 mph 32.2 mph N/A   Overcast
6:28 AM 25.0 °F 8.6 °F 21.0 °F 85% 30.00 in 10.0 mi North 27.6 mph 33.4 mph N/A   Overcast
6:54 AM 25.0 °F 8.9 °F 21.0 °F 85% 30.07 in 10.0 mi NNW 26.5 mph 34.5 mph N/A   Overcast
7:54 AM 21.0 °F 5.4 °F 16.0 °F 81% 30.14 in 10.0 mi NNW 20.7 mph 28.8 mph 0.00 in   Overcast
8:54 AM 19.9 °F 3.5 °F 14.0 °F 78% 30.20 in 9.0 mi NNW 21.9 mph 28.8 mph 0.00 in Snow Light Snow
9:54 AM 19.0 °F 1.0 °F 12.0 °F 74% 30.24 in 9.0 mi NNW 26.5 mph 32.2 mph 0.00 in Snow Light Snow
10:54 AM 17.1 °F -0.6 °F 8.1 °F 68% 30.30 in 9.0 mi NW 23.0 mph 32.2 mph 0.00 in   Overcast
11:54 AM 17.1 °F 0.1 °F 7.0 °F 65% 30.32 in 9.0 mi NW 20.7 mph 28.8 mph 0.00 in   Overcast
12:54 PM 18.0 °F 1.3 °F 6.1 °F 60% 30.35 in 10.0 mi NNW 20.7 mph 29.9 mph N/A   Overcast
1:54 PM 19.0 °F 2.7 °F 6.1 °F 57% 30.37 in 10.0 mi NW 20.7 mph 27.6 mph N/A   Mostly Cloudy
4:54 PM 19.9 °F 3.9 °F 5.0 °F 52% 30.40 in 10.0 mi NNW 20.7 mph 29.9 mph N/A   Mostly Cloudy
5:01 PM 19.0 °F 2.7 °F 5.0 °F 54% 30.31 in 10.0 mi NNW 20.7 mph 28.8 mph N/A   Scattered Clouds
6:54 PM 18.0 °F 3.6 °F 5.0 °F 57% 30.43 in 10.0 mi NW 15.0 mph 23.0 mph N/A   Mostly Cloudy
7:54 PM 17.1 °F 3.0 °F 3.9 °F 56% 30.46 in 10.0 mi NNW 13.8 mph - N/A   Overcast
9:39 PM 14.0 °F -3.0 °F 3.0 °F 62% 30.39 in 10.0 mi NW 18.4 mph - N/A   Overcast
9:54 PM 14.0 °F -3.0 °F 3.0 °F 62% 30.51 in 10.0 mi WNW 18.4 mph 25.3 mph N/A   Overcast
10:09 PM 12.9 °F -3.9 °F 1.9 °F 62% 30.41 in 10.0 mi WNW 17.3 mph - N/A   Overcast
10:54 PM 12.0 °F -5.6 °F 1.9 °F 64% 30.53 in 10.0 mi NW 18.4 mph - N/A   Partly Cloudy
11:54 PM 10.9 °F -5.9 °F 1.0 °F 64% 30.56 in 10.0 mi NW 16.1 mph - N/A   Mostly Cloudy